Theta_e
268 268 268 267 267 268 267 266 266 266 266 266 266 266 266 266 267 267 267 267 266 266 266 266 265 264 265 265 266 266 265 265 265 265 265 265 265 265 264 264 265 264
268 269 269 268 268 268 267 266 266 266 266 266 265 266 266 266 266 267 266 265 266 265 266 265 265 265 264 265 265 264 264 264 263 265 264 264 264 264 264 264 264 265
267 267 267 266 266 266 266 266 266 266 265 265 266 265 265 266 265 265 265 265 265 265 264 264 264 264 264 264 264 264 263 263 263 264 264 263 263 263 263 264 264 264
267 267 267 266 265 265 266 265 265 265 265 265 265 265 265 266 265 264 265 265 264 264 264 264 264 264 264 264 263 263 263 263 263 263 263 263 263 263 263 263 263 263
267 266 266 265 265 265 265 264 264 264 264 265 265 265 265 264 264 264 264 264 264 264 264 264 264 264 264 263 263 263 263 263 263 263 262 262 262 263 263 263 262 262
266 266 266 265 265 265 264 264 264 264 264 264 264 264 264 264 264 264 264 263 263 263 263 263 263 263 263 263 263 262 262 262 262 262 262 261 262 262 262 262 261 261
265 265 265 265 265 265 264 264 264 265 264 264 264 263 264 263 263 263 263 263 263 263 263 263 263 262 263 262 262 262 262 262 262 262 261 261 261 261 262 261 261 260
265 265 265 264 264 264 264 264 264 264 264 263 263 263 263 263 263 263 263 263 263 263 262 262 262 262 262 262 261 261 261 261 261 261 261 260 261 260 260 261 260 260
265 264 264 264 264 264 264 264 264 263 263 263 263 263 263 263 263 263 263 263 262 262 262 262 262 262 262 261 261 260 260 260 261 260 260 260 259 260 260 260 259 259
264 264 264 264 264 264 264 264 263 263 263 263 263 263 263 263 263 263 263 262 262 262 261 261 261 261 261 261 261 260 260 260 260 260 260 259 259 259 259 259 259 258
264 264 264 264 264 264 263 263 263 263 263 263 263 263 263 263 263 263 262 262 261 261 261 261 261 261 260 260 260 260 260 259 259 259 259 259 259 259 259 259 258 258
264 264 264 264 264 263 263 263 263 262 263 263 263 262 262 262 262 262 261 261 261 261 261 260 260 260 260 260 260 259 259 259 259 258 258 258 258 258 258 258 258 258
264 264 264 264 263 263 263 263 262 263 263 262 263 262 262 261 261 261 261 261 260 260 260 260 260 259 259 259 258 258 258 258 258 258 258 258 258 258 258 258 258 258
264 264 264 264 263 263 263 263 262 262 262 263 262 261 261 260 260 260 260 260 260 260 260 259 259 259 258 258 258 257 257 257 257 257 257 257 257 258 258 258 258 258
264 264 264 263 263 263 263 262 262 262 262 262 260 259 259 260 260 260 259 259 259 259 259 259 258 257 257 257 256 256 256 256 257 257 257 257 257 257 258 258 258 258
263 263 263 263 262 262 262 262 261 262 261 260 259 258 258 259 259 259 258 257 257 257 257 257 256 256 258 260 264 260 260 259 259 259 259 259 259 259 259 259 259 259
262 262 262 261 261 261 261 260 261 260 259 257 257 257 257 257 258 257 257 257 256 256 255 255 256 256 260 265 261 260 260 260 259 259 260 259 259 259 259 259 259 259
261 261 261 260 260 260 260 259 259 257 257 257 256 257 257 257 256 256 256 256 256 256 255 255 255 258 264 263 263 264 261 259 260 259 259 259 259 259 259 258 258 258
261 260 260 259 259 259 259 258 257 257 256 255 255 256 255 255 257 257 256 256 255 255 255 255 255 260 264 262 262 264 264 262 259 259 259 259 258 258 258 258 258 258
260 260 259 259 259 259 258 257 255 255 255 255 255 256 256 256 256 256 256 255 255 254 254 254 254 257 263 264 261 260 261 262 259 259 259 258 257 257 257 257 257 257
260 259 258 258 258 258 257 256 255 255 256 256 255 256 256 255 255 255 255 255 254 254 254 254 254 260 264 262 258 262 263 262 259 259 258 257 256 256 256 256 256 257
259 258 258 258 258 257 256 256 256 256 256 256 256 256 255 255 255 255 254 254 255 254 253 253 254 262 263 263 258 261 262 259 257 256 256 257 257 257 257 257 257 257
259 258 258 257 257 256 256 256 256 256 256 256 254 255 256 255 255 255 255 254 254 254 253 253 253 258 262 263 261 261 260 258 257 257 257 257 257 257 257 257 257 257
258 258 257 256 256 255 256 257 257 257 256 256 255 255 255 255 254 254 254 254 254 253 253 253 253 257 262 263 261 260 259 257 257 256 256 256 256 257 257 257 258 261
257 257 256 256 256 256 256 256 256 256 256 255 255 254 254 254 254 254 254 254 254 253 255 254 253 255 261 262 262 257 259 257 257 257 256 256 257 257 258 258 258 260
257 256 256 256 256 256 256 255 255 255 255 255 255 255 254 254 254 253 253 253 253 253 253 253 252 253 254 261 262 258 261 258 258 257 256 257 258 258 258 258 258 257
Wind_Speed
5 5 4 3 2 3 3 4 4 5 6 5 6 5 5 5 6 5 5 4 4 5 6 5 4 4 5 5 6 6 6 6 6 7 8 9 8 9 8 8 8 7
6 6 4 3 3 3 3 3 4 5 6 5 4 4 5 5 5 5 5 4 5 5 5 4 4 5 6 5 5 5 6 6 7 6 7 9 8 9 9 10 10 9
5 5 4 3 4 3 3 3 4 5 5 4 4 5 6 4 5 4 3 5 5 5 4 4 6 7 6 4 5 6 7 7 7 7 8 8 8 8 8 8 8 9
4 4 4 4 3 4 4 4 4 4 4 5 5 5 5 5 4 4 5 6 5 5 5 5 6 6 5 7 7 6 7 7 7 7 8 7 7 8 8 7 8 9
4 4 4 4 3 3 3 4 4 4 4 6 5 5 5 4 5 5 6 6 5 5 5 6 7 7 7 6 6 7 7 7 7 7 8 8 7 8 8 8 8 10
4 4 4 4 4 4 5 4 4 4 6 5 6 4 4 4 5 5 6 6 5 6 7 7 7 6 6 7 7 8 8 8 8 8 9 9 9 7 7 8 9 9
4 4 4 4 4 4 5 5 5 5 5 5 3 4 4 5 6 6 5 5 6 7 7 7 7 7 6 7 7 8 8 9 9 9 10 9 9 10 8 9 9 10
4 4 4 4 4 5 5 6 6 5 4 3 4 5 4 6 6 4 5 7 8 7 7 7 7 8 8 7 9 9 10 7 8 8 9 10 8 10 9 7 8 10
4 4 4 4 5 6 6 7 6 5 3 4 5 5 5 4 4 6 8 8 7 6 7 7 7 8 7 8 9 10 11 10 9 10 10 10 10 10 10 10 10 11
4 4 5 5 6 6 7 6 5 4 3 4 4 5 6 4 5 7 7 5 6 7 7 7 8 8 9 9 10 11 11 12 11 11 11 11 12 12 11 11 11 11
5 5 6 7 7 6 6 5 4 4 3 4 6 7 6 5 6 5 5 6 7 8 9 8 9 9 10 10 10 10 11 12 12 11 11 11 11 11 11 11 11 11
6 6 7 7 7 6 6 5 4 4 5 5 5 7 6 6 5 4 5 7 8 8 9 9 9 9 10 11 11 11 11 12 12 12 12 11 11 11 11 10 11 11
7 7 6 6 6 7 5 4 4 5 5 6 6 8 6 4 4 6 6 7 9 9 9 10 10 9 10 11 11 11 11 12 12 12 12 11 11 11 11 11 11 11
6 5 6 7 6 6 5 5 5 5 5 6 6 4 4 5 6 7 8 8 9 9 9 9 10 10 11 11 11 11 12 12 12 13 12 12 12 12 12 12 12 12
6 6 6 7 7 7 7 6 6 6 6 6 3 3 4 5 7 8 9 10 10 10 10 9 9 10 9 10 11 14 13 13 14 13 13 13 13 13 13 13 13 12
7 7 8 8 8 7 7 6 6 6 6 5 4 4 4 6 7 8 8 9 9 10 9 9 9 9 13 24 24 17 14 12 12 12 12 12 13 13 13 12 12 12
7 8 7 8 8 7 6 5 7 6 5 4 4 4 5 6 6 9 9 9 10 10 10 9 9 10 22 28 21 23 20 15 13 12 12 12 12 12 12 12 11 12
7 8 8 8 6 7 7 6 6 5 5 6 5 5 6 5 7 9 9 10 9 10 10 10 10 16 28 23 28 29 22 17 13 12 10 10 10 10 9 9 10 10
7 7 8 7 7 7 7 6 6 6 5 5 6 6 5 6 9 10 10 10 10 11 11 10 10 21 26 24 26 31 25 22 13 11 11 10 10 10 10 10 10 10
7 7 8 8 7 7 6 6 5 6 6 5 5 6 7 8 8 10 11 10 10 11 10 10 11 17 26 23 20 23 28 26 14 11 10 9 10 10 10 10 10 11
7 7 7 7 7 7 6 6 6 6 6 6 6 8 8 9 9 9 10 10 10 10 10 11 11 23 27 26 20 22 30 24 12 11 10 10 10 9 10 11 11 11
7 7 7 7 7 6 6 7 6 7 8 7 7 7 7 7 7 7 10 11 10 10 10 11 12 23 27 26 22 24 29 16 10 10 11 11 10 9 10 10 10 11
7 7 7 8 6 6 7 7 8 9 8 5 7 8 8 8 8 9 9 10 11 10 11 12 11 18 26 28 22 25 24 13 11 9 10 10 11 10 10 11 11 11
7 6 7 7 6 7 9 9 8 8 8 6 7 8 9 9 8 9 9 9 10 11 11 11 12 17 26 27 24 20 18 13 10 9 10 11 11 10 9 9 11 20
6 6 6 6 7 9 8 9 9 9 8 6 7 7 9 8 8 9 10 9 9 10 14 15 13 15 23 26 29 22 21 14 11 9 10 10 10 10 9 9 9 12
5 5 6 7 9 9 8 9 8 8 8 8 9 8 9 9 9 9 11 11 9 10 10 11 12 12 13 26 27 21 30 19 11 9 10 11 10 9 10 8 6 5
Wind_Direction
281 282 265 257 259 272 276 290 295 298 298 293 298 299 305 304 313 313 316 324 330 336 327 324 312 306 297 300 298 295 297 296 300 302 297 294 288 286 285 283 285 287
285 279 263 265 271 287 284 279 287 293 293 290 285 300 303 306 304 314 317 323 323 319 320 313 306 301 299 292 290 294 293 291 290 287 288 287 287 288 286 283 280 278
285 283 271 273 275 273 276 281 285 287 285 285 298 301 297 297 302 306 312 311 312 313 311 307 304 297 288 287 292 292 289 285 284 285 284 282 283 285 285 289 287 285
278 276 269 271 269 271 277 285 286 282 287 299 297 294 295 296 302 303 304 309 303 299 300 301 301 300 299 298 294 288 285 285 284 289 289 287 289 289 290 293 291 290
277 278 276 272 270 271 275 280 281 280 285 289 292 289 291 297 301 305 303 301 299 298 299 298 296 293 292 294 298 296 294 291 292 291 289 288 285 286 286 285 285 284
271 271 272 270 270 270 274 267 269 278 282 284 280 285 284 291 300 300 301 299 300 301 299 297 292 290 301 302 302 297 294 294 292 292 289 287 287 281 283 281 279 280
268 269 272 275 277 276 272 269 270 271 268 264 276 280 283 291 293 294 295 298 298 298 297 296 299 301 301 299 294 292 290 288 288 285 284 284 282 281 278 279 279 278
266 263 265 272 277 273 272 273 270 264 262 272 274 281 283 283 281 283 289 289 286 286 290 293 296 298 298 298 295 292 290 285 283 281 277 277 275 277 275 271 276 280
261 264 266 271 274 276 275 273 266 262 262 271 282 284 280 271 275 286 290 286 283 286 289 290 292 293 294 292 291 291 290 289 284 285 284 283 280 277 279 279 278 277
262 263 270 274 277 275 271 266 262 259 261 273 281 282 275 270 280 289 286 284 287 289 289 292 293 292 291 288 288 289 287 286 286 282 280 280 279 280 281 280 278 278
267 266 272 276 274 272 270 267 262 262 265 277 284 279 270 276 281 280 288 296 296 295 295 293 293 293 291 288 285 283 284 284 283 282 278 278 278 278 279 278 276 274
273 274 274 272 272 272 269 264 259 263 277 281 276 276 272 271 279 292 293 293 293 293 293 293 292 290 288 288 287 285 284 282 280 278 278 277 277 276 274 272 271 272
275 274 271 273 275 271 263 258 260 269 277 280 278 274 277 287 292 293 292 292 292 293 292 291 291 289 286 284 282 281 279 278 277 277 277 276 273 273 271 269 268 268
274 274 275 277 275 269 263 260 263 268 274 279 276 273 279 284 287 289 291 290 291 290 290 289 286 285 284 281 280 278 276 273 273 274 274 272 270 269 268 266 265 264
282 282 281 277 274 272 270 268 268 271 275 275 262 270 278 282 289 292 294 293 287 286 287 286 284 281 278 278 278 275 267 267 267 265 264 266 267 265 263 262 260 258
286 284 281 278 275 270 265 267 267 271 274 270 268 275 279 284 287 289 287 285 285 283 282 280 278 276 274 277 277 270 267 266 265 261 263 266 270 270 269 266 261 259
283 280 279 274 269 265 266 265 271 269 261 262 268 271 273 279 285 285 280 278 279 281 279 276 274 272 277 282 278 282 284 280 275 272 270 270 268 269 272 271 267 263
280 279 276 273 268 265 262 257 257 255 254 257 264 273 276 277 278 276 275 275 275 275 275 274 273 275 282 284 287 286 285 281 279 284 283 276 274 272 270 266 268 267
277 275 273 271 266 263 265 263 260 262 263 269 268 265 270 271 273 276 274 274 274 276 276 275 272 281 285 286 285 287 288 291 291 291 290 286 283 278 274 274 274 275
277 276 274 271 269 270 268 267 260 257 258 255 261 265 266 272 272 271 273 272 272 273 275 275 273 277 283 284 283 287 291 291 294 294 290 289 287 280 275 274 271 272
278 275 273 273 273 272 271 265 262 266 264 262 258 265 272 270 271 274 273 274 274 273 273 275 271 281 286 288 289 292 294 299 304 303 299 287 280 272 269 268 267 267
274 272 272 276 276 273 270 271 270 269 272 271 269 268 264 264 266 265 273 274 274 275 275 276 277 284 289 292 292 292 295 301 303 297 290 284 277 273 270 269 269 269
269 270 274 277 275 274 275 276 279 279 275 268 267 266 271 269 270 273 273 275 277 275 276 277 278 284 289 292 292 295 301 298 294 291 287 286 279 272 269 268 268 266
266 267 271 274 276 276 279 282 280 278 275 270 264 274 275 274 278 276 273 271 273 274 273 277 277 284 290 294 296 296 297 298 300 286 278 278 274 266 262 262 259 268
266 266 268 273 277 281 282 283 283 281 280 275 268 271 274 277 275 275 274 272 268 270 276 277 279 284 290 294 295 294 297 295 292 285 281 275 275 273 266 262 265 268
266 268 270 275 281 284 283 280 281 282 280 280 279 277 278 276 274 273 274 274 274 272 272 273 277 279 282 289 294 295 299 299 293 289 288 286 280 280 279 270 264 278